Location: Newark
(5.5500°N, 0.2500°W)
Time: 16:29:44
(UTC+00:00)

Hubble Space Telescope - Pass Details

Date: 21 September 2019
Orbit: 536 x 540 km, 28.5° (Epoch: 19 October)

Event Time Altitude Azimuth Distance (km) Brightness Sun altitude
Rises 19:41:51 0° 221° (SW) 2,669 4.8 -26.7°
Reaches altitude 10° 19:44:21 10° 209° (SSW) 1,777 3.7 -27.4°
Enters shadow 19:45:03 14° 203° (SSW) 1,553 3.3 -27.5°
